SCP
-0 -0 -0 -0 -0 -0 -0 0 0 -0 0 0 0 0 0 0 0 0 0 0 0 0
-0 -0 -0 0 -0 -0 -0 0 0 -0 0 0 0 0 0 0 0 0 0 0 0 0
-0 -0 -0 -0 0 0 -0 0 0 -0 -0 0 0 0 0 0 0 0 0 0 0 0
-0 -0 -0 0 0 0 -0 -0 -0 -0 -0 -0 0 0 0 0 0 0 0 0 0 0
-0 -0 -0 0 0 0 -0 -0 -0 -0 -0 -0 -0 0 0 0 0 0 0 0 0 0
-0 -0 -0 0 0 -0 -0 -0 0 -0 -0 -0 -0 0 0 0 0 0 0 0 0 0
-0 -0 -0 -0 -0 -0 -0 -0 -0 0 -0 -0 0 0 0 0 0 0 0 0 0 0
-0 -0 -0 -0 -0 -0 -0 -0 -0 0 -0 -0 -0 0 0 0 0 0 0 0 0 0
-0 -0 -0 -0 -0 -0 -0 -0 -0 0 -0 -0 -0 -0 -0 0 0 0 0 0 0 0
-0 -0 -0 -0 -0 -0 -0 -0 -0 0 -0 -0 -0 -0 -0 0 0 0 0 0 0 0
0 -0 -0 -0 -0 -0 -0 -0 -0 -0 -0 -0 -0 -0 -0 0 0 0 0 0 0 0
0 -0 -0 -0 -0 -0 -0 -0 -0 -0 0 -0 -0 -0 -0 0 0 0 0 0 0 0
0 0 -0 -0 -0 -0 -0 -0 -0 -0 -0 -0 -0 -0 0 0 0 0 0 0 0 0
0 0 0 -0 0 -0 -0 -0 -0 -0 0 -0 -0 0 0 0 0 0 0 0 0 0
Wind_Speed_500mb
62 55 50 46 38 35 28 23 21 19 12 13 16 16 20 12 8 10 9 8 9 10
64 61 59 55 48 40 34 30 29 22 15 17 18 19 20 15 11 10 8 9 10 10
68 63 59 61 59 50 39 35 31 32 28 27 22 22 24 19 13 12 12 10 9 11
73 68 64 63 67 59 50 44 43 40 38 34 27 24 28 23 18 16 15 14 11 13
70 72 69 67 66 64 60 53 49 46 44 37 34 31 31 25 23 22 19 18 16 15
67 71 74 73 69 66 64 61 57 54 53 46 42 41 38 32 27 27 24 22 21 20
72 69 73 74 73 70 67 65 61 59 58 54 50 50 45 38 32 31 29 26 25 23
75 71 71 74 74 73 72 70 67 65 65 63 59 55 51 46 38 35 35 32 30 27
80 76 75 74 73 74 75 75 73 71 69 69 69 64 57 52 46 41 40 39 33 31
85 82 80 77 74 77 76 76 79 75 71 71 69 64 58 54 51 50 43 42 40 35
85 84 81 81 79 79 77 76 83 78 74 73 72 64 58 57 56 56 49 45 43 41
85 83 83 85 82 79 79 76 84 81 77 77 75 68 62 61 62 61 55 49 50 50
77 82 84 83 82 79 81 78 78 80 85 79 76 69 66 64 65 64 62 57 55 54
71 76 78 76 77 80 82 79 78 82 88 84 77 75 70 67 71 67 65 62 57 54
Wind_Direction_500mb
218 221 223 225 234 232 238 248 268 277 253 287 317 332 337 332 329 344 355 347 332 332
221 224 226 230 234 238 245 252 261 264 273 287 303 318 328 325 302 322 322 333 321 327
224 226 228 230 233 237 242 247 254 272 275 276 284 306 317 315 285 298 305 317 319 312
226 227 230 231 232 236 240 245 255 267 269 269 273 293 305 308 289 285 291 301 308 316
227 228 231 232 230 235 241 245 250 260 265 264 267 280 295 293 288 280 284 295 299 305
229 229 231 233 233 237 242 247 252 257 258 260 267 278 285 281 288 278 281 287 293 296
230 231 233 235 238 240 244 248 251 253 256 259 264 271 276 276 279 276 275 277 280 280
229 233 236 238 240 243 246 249 251 252 254 257 260 263 268 269 269 276 274 274 278 279
229 233 236 239 240 244 247 250 252 252 254 257 259 261 261 264 266 272 272 271 272 273
230 233 237 240 242 245 246 249 251 253 254 256 258 258 258 261 264 265 271 269 265 270
230 233 236 239 242 244 247 246 251 253 255 258 260 259 258 259 261 262 268 264 264 265
231 233 235 239 241 243 248 246 249 253 256 257 261 262 260 257 258 259 262 265 261 263
234 234 236 238 241 244 248 251 253 257 259 261 263 264 263 259 258 259 258 259 261 259
232 235 236 239 242 247 251 254 255 258 262 266 265 265 266 262 260 260 261 259 263 265
Wind_Speed_850mb
62 55 50 46 38 35 28 23 21 19 12 13 16 16 20 12 8 10 9 8 9 10
64 61 59 55 48 40 34 30 29 22 15 17 18 19 20 15 11 10 8 9 10 10
68 63 59 61 59 50 39 35 31 32 28 27 22 22 24 19 13 12 12 10 9 11
73 68 64 63 67 59 50 44 43 40 38 34 27 24 28 23 18 16 15 14 11 13
70 72 69 67 66 64 60 53 49 46 44 37 34 31 31 25 23 22 19 18 16 15
67 71 74 73 69 66 64 61 57 54 53 46 42 41 38 32 27 27 24 22 21 20
72 69 73 74 73 70 67 65 61 59 58 54 50 50 45 38 32 31 29 26 25 23
75 71 71 74 74 73 72 70 67 65 65 63 59 55 51 46 38 35 35 32 30 27
80 76 75 74 73 74 75 75 73 71 69 69 69 64 57 52 46 41 40 39 33 31
85 82 80 77 74 77 76 76 79 75 71 71 69 64 58 54 51 50 43 42 40 35
85 84 81 81 79 79 77 76 83 78 74 73 72 64 58 57 56 56 49 45 43 41
85 83 83 85 82 79 79 76 84 81 77 77 75 68 62 61 62 61 55 49 50 50
77 82 84 83 82 79 81 78 78 80 85 79 76 69 66 64 65 64 62 57 55 54
71 76 78 76 77 80 82 79 78 82 88 84 77 75 70 67 71 67 65 62 57 54
Wind_Direction_850mb
218 221 223 225 234 232 238 248 268 277 253 287 317 332 337 332 329 344 355 347 332 332
221 224 226 230 234 238 245 252 261 264 273 287 303 318 328 325 302 322 322 333 321 327
224 226 228 230 233 237 242 247 254 272 275 276 284 306 317 315 285 298 305 317 319 312
226 227 230 231 232 236 240 245 255 267 269 269 273 293 305 308 289 285 291 301 308 316
227 228 231 232 230 235 241 245 250 260 265 264 267 280 295 293 288 280 284 295 299 305
229 229 231 233 233 237 242 247 252 257 258 260 267 278 285 281 288 278 281 287 293 296
230 231 233 235 238 240 244 248 251 253 256 259 264 271 276 276 279 276 275 277 280 280
229 233 236 238 240 243 246 249 251 252 254 257 260 263 268 269 269 276 274 274 278 279
229 233 236 239 240 244 247 250 252 252 254 257 259 261 261 264 266 272 272 271 272 273
230 233 237 240 242 245 246 249 251 253 254 256 258 258 258 261 264 265 271 269 265 270
230 233 236 239 242 244 247 246 251 253 255 258 260 259 258 259 261 262 268 264 264 265
231 233 235 239 241 243 248 246 249 253 256 257 261 262 260 257 258 259 262 265 261 263
234 234 236 238 241 244 248 251 253 257 259 261 263 264 263 259 258 259 258 259 261 259
232 235 236 239 242 247 251 254 255 258 262 266 265 265 266 262 260 260 261 259 263 265